[[{"header":{"parameterUnit":"m.s-1","parameterCategory":1,"la1":30.2991,"la2":30.254,"lo1":-89.0895,"lo2":-89.0444,"dy":0.0017,"dx":0.0017,"nx":28,"ny":28,"refTime":"2026-02-13T09:00:00:Z","depth":0,"parameterNumber":2,"parameterNumberName":"U-component_of_WINDS"},"data":[0,0,0,0,0,0,0,0,0,0,0,0,0,0,0,0,0,0,0,0,0,0,0,0,0,0,0,0,0,0,0,0,0,0,0,0,0,0,0,0,0,0,0,0,0,0,0,0,0,0,0,0,0,0,0,0,0,0,-0.5948,-0.5948,0,-0.599,-0.599,-0.5991,-0.6007,-0.6007,-0.6007,-0.6007,-0.6051,-0.6052,-0.6053,0,0,0,0,0,0,0,0,0,0,0,0,0,-0.5884,-0.5885,-0.5948,-0.5948,-0.5949,-0.599,-0.599,-0.5991,-0.6007,-0.6007,-0.6007,-0.6007,-0.605,-0.6052,-0.6053,0,0,0,0,0,0,0,0,0,0,0,0,0,-0.5918,-0.5886,-0.5948,-0.5962,-0.5964,-0.5989,-0.599,-0.5991,-0.6008,-0.6007,-0.6007,-0.6007,-0.605,-0.6052,-0.6053,-0.6068,0,0,-0.6059,-0.606,0,0,0,0,0,0,0,0,-0.5916,-0.592,-0.5959,-0.5961,-0.5963,-0.5993,-0.5984,-0.6017,-0.6008,-0.5991,-0.6007,-0.6007,-0.6032,-0.6035,-0.6043,-0.607,-0.6072,-0.6059,-0.606,-0.6061,-0.6062,0,0,0,0,0,0,0,-0.5913,-0.5918,-0.5964,-0.596,-0.5962,-0.5967,-0.5972,-0.599,-0.6012,-0.5992,-0.5994,-0.5998,-0.6033,-0.6041,-0.6044,-0.6072,-0.6059,-0.6061,-0.6062,-0.6063,-0.6115,-0.6115,0,0,0,0,0,0,-0.5908,-0.5916,-0.5963,-0.5966,-0.5939,-0.5968,-0.5973,-0.5984,-0.6012,-0.6016,-0.5998,-0.5999,-0.6038,-0.6042,-0.6046,-0.6066,-0.6061,-0.6063,-0.6064,-0.6115,-0.6115,-0.6115,0,0,0,0,0,0,-0.5907,-0.5912,-0.5961,-0.5941,-0.5948,-0.597,-0.5981,-0.5985,-0.5993,-0.6016,-0.602,-0.6003,-0.6038,-0.6043,-0.6063,-0.6067,-0.6064,-0.6066,-0.6114,-0.6115,-0.6115,-0.6105,0,0,0,0,0,0,-0.5905,-0.5912,-0.5917,-0.5941,-0.5949,-0.5977,-0.5981,-0.5986,-0.5996,-0.5998,-0.6022,-0.6026,-0.6039,-0.606,-0.6064,-0.607,-0.6067,-0.6114,-0.6114,-0.6115,-0.6105,-0.6104,-0.6104,0,0,0,0,0,-0.5903,-0.5912,-0.5917,-0.5923,-0.5956,-0.5977,-0.5981,-0.5996,-0.5997,-0.6003,-0.6017,-0.6025,-0.6066,-0.6062,-0.6067,-0.6073,-0.6114,-0.6114,-0.6115,-0.6105,-0.6105,-0.6104,0,0,0,0,0,0,-0.5888,-0.5916,-0.5921,-0.5939,-0.5956,-0.598,-0.5987,-0.5995,-0.6012,-0.6012,-0.603,-0.6035,-0.6053,-0.6065,-0.606,-0.6089,-0.6091,-0.6092,-0.6081,-0.6081,-0.6081,-0.6078,-0.6069,0,0,0,0,0,-0.5887,-0.5901,-0.5925,-0.5938,-0.5946,-0.5965,-0.5975,-0.5985,-0.6003,-0.601,-0.6026,-0.6044,-0.6061,-0.6072,-0.6088,-0.6107,-0.6113,-0.6114,-0.6113,-0.6113,-0.6115,-0.6126,-0.6127,-0.6117,-0.6117,-0.6117,0,0,-0.5885,-0.5901,-0.5909,-0.5936,-0.595,-0.5965,-0.5971,-0.5987,-0.5998,-0.6012,-0.6032,-0.6044,-0.6065,-0.6084,-0.6093,-0.6095,-0.6119,-0.6114,-0.6114,-0.6115,-0.6127,-0.6128,-0.6129,-0.6117,-0.6117,-0.6117,0,0,-0.5888,-0.5902,-0.5915,-0.5929,-0.595,-0.5963,-0.5966,-0.599,-0.5999,-0.6018,-0.603,-0.6044,-0.6073,-0.6088,-0.6099,-0.6109,-0.6117,-0.6114,-0.6114,-0.6125,-0.6126,-0.6127,-0.6131,-0.6133,-0.6116,-0.6116,-0.6116,0,-0.5882,-0.5905,-0.5921,-0.5936,-0.5948,-0.5961,-0.5975,-0.5988,-0.6014,-0.6022,-0.6023,-0.606,-0.6075,-0.6098,-0.6101,-0.6109,-0.6114,-0.6112,-0.6125,-0.6126,-0.6127,-0.6131,-0.6133,-0.6115,-0.6115,-0.6115,-0.6115,0,-0.5898,-0.5914,-0.5922,-0.5946,-0.5959,-0.5973,-0.5992,-0.6003,-0.6012,-0.6025,-0.6046,-0.6064,-0.6086,-0.6092,-0.6101,-0.6117,-0.6117,-0.6121,-0.6123,-0.6127,-0.6131,-0.6133,-0.6114,-0.6115,-0.6115,-0.6115,0,0,-0.5892,-0.5926,-0.5929,-0.5941,-0.5966,-0.5978,-0.5994,-0.6015,-0.6025,-0.6042,-0.6056,-0.6081,-0.6085,-0.6098,-0.6109,-0.6119,-0.6127,-0.6122,-0.6123,-0.6123,-0.6147,-0.6144,-0.6145,-0.6132,-0.6133,-0.6133,-0.6145,0,-0.59,-0.5928,-0.5943,-0.5965,-0.598,-0.5994,-0.6008,-0.6025,-0.6038,-0.6054,-0.6068,-0.6086,-0.609,-0.6098,-0.6108,-0.6124,-0.6132,-0.6123,-0.6146,-0.6147,-0.6141,-0.6148,-0.6144,-0.6155,-0.6147,-0.6147,-0.6148,0,-0.5911,-0.5929,-0.5952,-0.5977,-0.5984,-0.5996,-0.6017,-0.6031,-0.6052,-0.6061,-0.6075,-0.6086,-0.6104,-0.6105,-0.613,-0.6124,-0.6135,-0.6144,-0.6145,-0.6148,-0.6148,-0.6151,-0.6158,-0.616,-0.6151,-0.615,-0.615,0,-0.5906,-0.5935,-0.5954,-0.5963,-0.5992,-0.6,-0.6012,-0.6033,-0.6045,-0.6063,-0.6072,-0.6092,-0.6103,-0.6119,-0.6136,-0.6135,-0.616,-0.6162,-0.6169,-0.6169,-0.6174,-0.6173,-0.6183,-0.618,-0.618,-0.618,-0.618,0,-0.5912,-0.5926,-0.5952,-0.5963,-0.5979,-0.5997,-0.6013,-0.6027,-0.6045,-0.6059,-0.6073,-0.6087,-0.6108,-0.6124,-0.6138,-0.6157,-0.6162,-0.617,-0.6174,-0.6169,-0.6168,-0.6177,-0.6176,-0.618,-0.618,-0.618,-0.618,0,-0.5909,-0.5926,-0.5947,-0.5972,-0.5979,-0.599,-0.6013,-0.6025,-0.6039,-0.6057,-0.6063,-0.6085,-0.6106,-0.6124,-0.6151,-0.616,-0.618,-0.6184,-0.6173,-0.6175,-0.6181,-0.6181,-0.6197,-0.62,-0.6195,-0.6195,-0.6195,0,-0.5911,-0.5923,-0.595,-0.596,-0.5973,-0.599,-0.6002,-0.602,-0.6033,-0.6058,-0.6067,-0.6088,-0.6106,-0.6139,-0.6158,-0.6179,-0.6184,-0.6188,-0.6187,-0.6183,-0.6185,-0.6184,-0.6185,-0.6188,-0.6188,-0.6188,-0.6188,0,-0.5915,-0.5924,-0.5941,-0.5962,-0.5976,-0.5993,-0.6011,-0.6019,-0.6041,-0.6055,-0.6076,-0.609,-0.6118,-0.6139,-0.6163,-0.6176,-0.6186,-0.6188,-0.6191,-0.6187,-0.618,-0.6184,-0.6173,-0.6188,-0.6188,-0.6188,-0.6188,-0.6188,-0.5915,-0.5926,-0.5947,-0.5966,-0.5982,-0.5998,-0.6011,-0.6027,-0.6045,-0.6069,-0.6079,-0.61,-0.6122,-0.6155,-0.6168,-0.6186,-0.6188,-0.6192,-0.6193,-0.6194,-0.6193,-0.6177,-0.619,-0.619,-0.619,-0.619,-0.619,0,-0.592,-0.5935,-0.5952,-0.5977,-0.5992,-0.6,-0.602,-0.6033,-0.6051,-0.6071,-0.6088,-0.6113,-0.6134,-0.6156,-0.6178,-0.6188,-0.6194,-0.6194,-0.6193,-0.6197,-0.619,-0.6185,-0.6189,-0.6189,-0.6189,-0.6189,-0.6189,-0.6189,-0.5925,-0.5944,-0.5955,-0.5982,-0.5997,-0.6018,-0.6029,-0.6045,-0.606,-0.6087,-0.6105,-0.6119,-0.6139,-0.6164,-0.6184,-0.619,-0.6198,-0.6197,-0.6204,-0.6197,-0.6197,-0.6197,-0.6193,-0.6198,-0.6198,-0.6209,-0.6209,-0.6209]},{"header":{"parameterUnit":"m.s-1","parameterCategory":1,"la1":30.2991,"la2":30.254,"lo1":-89.0895,"lo2":-89.0444,"dy":0.0017,"dx":0.0017,"nx":28,"ny":28,"refTime":"2026-02-13T09:00:00:Z","depth":0,"parameterNumber":3,"parameterNumberName":"V-component_of_WINDS"},"data":[0,0,0,0,0,0,0,0,0,0,0,0,0,0,0,0,0,0,0,0,0,0,0,0,0,0,0,0,0,0,0,0,0,0,0,0,0,0,0,0,0,0,0,0,0,0,0,0,0,0,0,0,0,0,0,0,0,0,-0.5283,-0.5283,0,-0.5336,-0.5336,-0.5337,-0.5353,-0.5353,-0.5353,-0.5353,-0.5403,-0.5404,-0.5406,0,0,0,0,0,0,0,0,0,0,0,0,0,-0.5192,-0.5194,-0.5283,-0.5283,-0.5284,-0.5335,-0.5336,-0.5337,-0.5353,-0.5353,-0.5353,-0.5353,-0.5402,-0.5404,-0.5406,0,0,0,0,0,0,0,0,0,0,0,0,0,-0.5237,-0.5195,-0.5282,-0.5299,-0.5301,-0.5335,-0.5336,-0.5337,-0.5354,-0.5353,-0.5353,-0.5353,-0.5402,-0.5404,-0.5406,-0.5428,0,0,-0.5413,-0.5414,0,0,0,0,0,0,0,0,-0.5234,-0.524,-0.5295,-0.5297,-0.53,-0.5338,-0.5323,-0.5367,-0.5354,-0.5333,-0.5353,-0.5352,-0.5381,-0.5385,-0.5396,-0.543,-0.5432,-0.5414,-0.5415,-0.5416,-0.5417,0,0,0,0,0,0,0,-0.5231,-0.5238,-0.5303,-0.5296,-0.5299,-0.5302,-0.5308,-0.5331,-0.5358,-0.5335,-0.5336,-0.5343,-0.5382,-0.5393,-0.5397,-0.5433,-0.5414,-0.5416,-0.5417,-0.5418,-0.5488,-0.5488,0,0,0,0,0,0,-0.5226,-0.5235,-0.5302,-0.5305,-0.5266,-0.5304,-0.5311,-0.5326,-0.5358,-0.5363,-0.5343,-0.5343,-0.539,-0.5394,-0.5399,-0.5427,-0.5416,-0.5418,-0.542,-0.5488,-0.5488,-0.5489,0,0,0,0,0,0,-0.5224,-0.5232,-0.53,-0.5271,-0.528,-0.5306,-0.5323,-0.5327,-0.5338,-0.5364,-0.5369,-0.535,-0.539,-0.5396,-0.5421,-0.5429,-0.5419,-0.5421,-0.5487,-0.5488,-0.5488,-0.5482,0,0,0,0,0,0,-0.5221,-0.5231,-0.524,-0.5271,-0.5281,-0.5322,-0.5323,-0.5328,-0.5343,-0.5344,-0.5372,-0.5376,-0.539,-0.5417,-0.5423,-0.5432,-0.5423,-0.5486,-0.5487,-0.5488,-0.5481,-0.5482,-0.5483,0,0,0,0,0,-0.5218,-0.5235,-0.5241,-0.5248,-0.5293,-0.5322,-0.5328,-0.5344,-0.5343,-0.5352,-0.5369,-0.5375,-0.5427,-0.542,-0.5426,-0.5436,-0.5486,-0.5487,-0.5488,-0.5481,-0.5482,-0.5483,0,0,0,0,0,0,-0.5203,-0.5239,-0.5246,-0.5273,-0.5295,-0.5325,-0.5337,-0.5345,-0.5366,-0.5366,-0.5384,-0.539,-0.5414,-0.5427,-0.5419,-0.5458,-0.5457,-0.5459,-0.5449,-0.545,-0.5451,-0.5447,-0.5425,0,0,0,0,0,-0.5203,-0.5225,-0.5255,-0.5276,-0.5287,-0.531,-0.5323,-0.5334,-0.5357,-0.5365,-0.5384,-0.5404,-0.5425,-0.5438,-0.5459,-0.5483,-0.549,-0.5493,-0.5494,-0.5494,-0.5496,-0.551,-0.5512,-0.5492,-0.5492,-0.5492,0,0,-0.5203,-0.5226,-0.5238,-0.5274,-0.5292,-0.5313,-0.5317,-0.5339,-0.5355,-0.5368,-0.5394,-0.5408,-0.5432,-0.5457,-0.5469,-0.5469,-0.5503,-0.5496,-0.5496,-0.5497,-0.5512,-0.5514,-0.5515,-0.5493,-0.5493,-0.5493,0,0,-0.5214,-0.5233,-0.5254,-0.5272,-0.53,-0.5315,-0.532,-0.5349,-0.536,-0.5386,-0.5397,-0.5415,-0.545,-0.5467,-0.548,-0.5499,-0.5505,-0.5505,-0.5508,-0.5522,-0.5524,-0.5525,-0.5532,-0.5534,-0.5506,-0.5506,-0.5506,0,-0.521,-0.5243,-0.5262,-0.5285,-0.53,-0.5315,-0.5335,-0.5351,-0.5384,-0.5394,-0.5393,-0.5439,-0.5456,-0.5485,-0.549,-0.55,-0.5506,-0.5501,-0.5522,-0.5524,-0.5525,-0.5532,-0.5535,-0.5506,-0.5506,-0.5506,-0.5506,0,-0.5237,-0.526,-0.5273,-0.5306,-0.5323,-0.5344,-0.5365,-0.538,-0.539,-0.5405,-0.5432,-0.5453,-0.5478,-0.5486,-0.5495,-0.5517,-0.5516,-0.5519,-0.5517,-0.5527,-0.5533,-0.5536,-0.5506,-0.5506,-0.5506,-0.5506,0,0,-0.5239,-0.5284,-0.5288,-0.5303,-0.5336,-0.5353,-0.5375,-0.5401,-0.5413,-0.5435,-0.5453,-0.5484,-0.5487,-0.5501,-0.5513,-0.5525,-0.5538,-0.5526,-0.5527,-0.5528,-0.5564,-0.5562,-0.5565,-0.5543,-0.5544,-0.5544,-0.5562,0,-0.5254,-0.5295,-0.5313,-0.5345,-0.5367,-0.5382,-0.54,-0.5421,-0.5436,-0.5456,-0.5472,-0.5493,-0.5495,-0.5505,-0.5517,-0.5534,-0.5546,-0.5533,-0.5559,-0.556,-0.5553,-0.5568,-0.5566,-0.5582,-0.5565,-0.5565,-0.5566,0,-0.5277,-0.5301,-0.5336,-0.5366,-0.5376,-0.5393,-0.5419,-0.5438,-0.5462,-0.5472,-0.5489,-0.55,-0.5522,-0.552,-0.555,-0.5541,-0.5553,-0.5563,-0.5564,-0.5567,-0.5563,-0.5572,-0.5588,-0.559,-0.557,-0.5569,-0.5569,0,-0.5275,-0.5316,-0.5342,-0.5355,-0.5391,-0.5403,-0.5418,-0.5442,-0.5457,-0.5479,-0.5489,-0.5513,-0.5526,-0.5544,-0.5561,-0.5558,-0.559,-0.5589,-0.5599,-0.5598,-0.5605,-0.5604,-0.5623,-0.5612,-0.5612,-0.5612,-0.5612,0,-0.529,-0.5311,-0.5342,-0.5358,-0.5382,-0.5403,-0.5425,-0.5441,-0.5462,-0.5481,-0.5495,-0.5512,-0.5533,-0.5553,-0.5566,-0.5589,-0.5595,-0.5603,-0.5606,-0.5602,-0.5601,-0.561,-0.5609,-0.5613,-0.5613,-0.5613,-0.5612,0,-0.5292,-0.5314,-0.5344,-0.5376,-0.5385,-0.5401,-0.5428,-0.5444,-0.546,-0.5484,-0.549,-0.5515,-0.5539,-0.5558,-0.5588,-0.5597,-0.5622,-0.5625,-0.5614,-0.5616,-0.5624,-0.5623,-0.565,-0.5654,-0.564,-0.564,-0.564,0,-0.53,-0.5317,-0.5352,-0.5366,-0.5382,-0.5405,-0.5421,-0.5442,-0.5457,-0.5487,-0.5499,-0.5524,-0.5545,-0.5583,-0.5602,-0.5626,-0.563,-0.5638,-0.5633,-0.5629,-0.563,-0.5629,-0.5631,-0.5638,-0.5638,-0.5638,-0.5638,0,-0.5312,-0.5323,-0.5346,-0.5374,-0.5393,-0.5415,-0.5437,-0.5448,-0.5473,-0.549,-0.5515,-0.5532,-0.5564,-0.5589,-0.5615,-0.5629,-0.5637,-0.5639,-0.5643,-0.5639,-0.5632,-0.5636,-0.5615,-0.5639,-0.5639,-0.5639,-0.5638,-0.5638,-0.5317,-0.5333,-0.5361,-0.5387,-0.5406,-0.5427,-0.5444,-0.5463,-0.5485,-0.5514,-0.5525,-0.5551,-0.5575,-0.5611,-0.5625,-0.5645,-0.5646,-0.5651,-0.5652,-0.5653,-0.5653,-0.5629,-0.565,-0.565,-0.565,-0.565,-0.565,0,-0.533,-0.5349,-0.5373,-0.5405,-0.5425,-0.5433,-0.5459,-0.5475,-0.5498,-0.5521,-0.5542,-0.5571,-0.5595,-0.5618,-0.5643,-0.5655,-0.5659,-0.566,-0.566,-0.5663,-0.5651,-0.5645,-0.5656,-0.5656,-0.5656,-0.5656,-0.5656,-0.5656,-0.534,-0.5367,-0.5381,-0.5418,-0.5436,-0.5464,-0.5477,-0.5496,-0.5515,-0.5548,-0.5568,-0.5583,-0.5606,-0.5633,-0.5655,-0.5661,-0.5669,-0.567,-0.5676,-0.5664,-0.5664,-0.5663,-0.5658,-0.5671,-0.5671,-0.5687,-0.5687,-0.5687]}]]